{"data":{"norad_id":65298,"epoch":"2026-05-25T05:03:25.274880Z","epoch_age_seconds":50091,"freshness":"FRESH","line1":"1 65298U 25185B   26145.21070920  .00009374  00000+0  12764-2 0  9994","line2":"2 65298  97.9641 228.8053 0017021 152.7910 207.4197 14.78840816 40441","mean_motion":14.78840816,"eccentricity":0.0017021,"inclination_deg":97.9641,"raan_deg":228.8053,"arg_perigee_deg":152.791,"mean_anomaly_deg":207.4197,"bstar":0.0012764,"rev_number":4044,"period_min":97.373563430237,"perigee_km":621.05187355117,"apogee_km":644.91913678326,"semimajor_km":7011.1225051672,"source":"CELESTRAK","updated_at":"2026-05-25T13:38:05.297213Z"}}